User: anonymous   Login
Location: Unspecified
(0.0000°N, 0.0000°E)
Time: 08:57:53
(UTC+00:00)
Language:

OV3-3 - Orbit

View from above orbital plane
View from above orbital plane
View from above satellite
View from above satellite

Ground track
Ground track

The orbit data is extracted from the following two-line orbital elements,

1  2389U 66070A   17115.84166693 +.00004107 +00000-0 +22845-3 0  9995
2  2389 081.3908 208.6730 1252631 037.5379 330.6832 12.89808215163079
Epoch (UTC): 25 April 2017 20:12:00
Eccentricity: 0.1252631
inclination: 81.3908°
perigee height: 340 km
apogee height: 2264 km
right ascension of ascending node: 208.6730°
argument of perigee: 37.5379°
revolutions per day: 12.89808215
mean anomaly at epoch: 330.6832°
orbit number at epoch: 16307

The dashed part of the orbit path shows where the satellite is in the earth's shadow,  

DLR